星链-5513 (STARLINK-5513 )

导读 | 星芒AI

STARLINK-5513 是 SpaceX 星链计划中的一颗低轨通信卫星,属于第 11 批部署的星链卫星群。该卫星于 2021 年 10 月发射,运行在约 550 公里的轨道高度,旨在为全球用户提供高速互联网服务。它采用先进的相控阵天线和激光通信技术,支持低延迟、高带宽的通信连接。作为星链星座的一部分,STARLINK-5513 有助于扩大覆盖范围,提升网络性能,并推动偏远地区的互联网普及。

基本信息
目录编号:
57251
目录名称:
STARLINK-5513
国际标识:
2023-094AK
轨道中心:
EARTH
卫星名称:
星链-5513
卫星全名:
星链-5513 (STARLINK-5513 )
卫星状态:
在轨 (已飞行898 天)
发射日期:
2023-07-07 UTC
国别 :
美国 (US)
星等 :
--
轨道信息
数据来源 国际轨道数据
星历时间: 2025-12-21T06:53:03+0800
14小时前
查看轨道信息
半长轴: 6937.208km
偏心率: 0.0001377
轨道倾角: 43.004°
近地点辐角 282.602°
升交点赤经 85.356°
平近点角 77.466°
近地点: 558.115km
远地点: 560.027km
周期: 95.838分钟
每日圈数: 15.025388
详细信息
固有亮度:
5
最大亮度:
2.4
卫星平台:
Starlink v1.5
覆盖范围:
全球
运营商:
太空探索技术公司
运营商所在国:
美国
制造商(研发单位):
太空探索技术公司
制造商所在国:
美国
使用方式:
暂无
卫星简介
星链(Starlink)计划是由太空探索技术公司(SpaceX)提出的一个巨型低轨卫星互联网星座项目,计划在2019年至2024年间在太空搭建由约1.2万颗卫星组成的“星链”网络,其中1584颗将部署在地球上空550千米处的近地轨道,并从2020年开始工作。该卫星仍在工作。
2D轨道图
3D轨道图
轨道高度分析图
轨道倾角分析图
轨道综合分析图
查看轨道综合分析图